Location: Bogis-Bossey
(46.3500°N, 6.1667°E)
Time: 14:29:00
(UTC+00:00)

Daily predictions for brighter satellites

Satellite Brightness Start Highest point End
(mag) Time Altitude Azimuth Time Altitude Azimuth Time Altitude Azimuth
Cosmos 1242 Rocket 4.4 18:26:31 10° NNW 18:29:42 34° W 18:32:53 10° SSW
STARLINK-67 3.5 18:28:22 10° W 18:30:51 42° NNW 18:33:20 10° NE
STARLINK-1066 3.0 18:27:54 10° WNW 18:31:04 75° SSW 18:34:12 10° SE
STARLINK-1201 3.0 18:27:59 10° WSW 18:31:15 88° NNW 18:34:32 10° ENE
STARLINK-1081 3.0 18:28:23 10° WNW 18:31:30 74° SW 18:34:36 10° SE
ADEOS Rocket 3.3 18:25:03 10° NNE 18:31:55 85° WNW 18:38:02 10° SSW
STARLINK-1070 3.0 18:28:50 10° WNW 18:31:57 74° SW 18:35:03 10° SE
STARLINK-1069 3.0 18:29:15 10° WNW 18:32:25 73° SSW 18:35:32 10° SE
USA 234 3.9 18:26:39 10° ENE 18:32:28 33° SE 18:38:14 10° S
STARLINK-1224 3.6 18:28:38 10° SW 18:32:39 61° SE 18:36:40 10° ENE
STARLINK-1085 3.1 18:29:42 10° WNW 18:32:51 72° SW 18:35:59 10° SE
STARLINK-1086 3.0 18:30:12 10° WNW 18:33:18 72° SSW 18:36:25 10° SE
STARLINK-1095 3.0 18:30:39 10° WNW 18:33:46 71° SSW 18:36:51 10° SE
Cosmos 1626 2.9 18:30:35 10° N 18:33:58 32° ENE 18:37:20 10° SE
STARLINK-1077 3.1 18:31:05 10° WNW 18:34:12 70° SSW 18:37:18 10° SE
STARLINK-1203 3.5 18:30:19 10° SW 18:34:16 68° SE 18:38:13 10° ENE
STARLINK-1075 3.1 18:31:32 10° WNW 18:34:39 70° SW 18:37:45 10° SE
STARLINK-1093 3.1 18:31:57 10° WNW 18:35:06 69° SSW 18:38:13 10° SE
H-2A R/B 2.4 18:30:05 10° SE 18:35:10 48° ENE 18:40:08 10° N
STARLINK-1074 3.1 18:32:25 10° WNW 18:35:33 69° SW 18:38:41 10° SE
STARLINK-1087 3.1 18:32:53 10° WNW 18:36:00 68° SSW 18:39:05 10° SE
HJ-1C 3.3 18:32:52 10° SSE 18:36:12 80° ENE 18:39:34 10° N
STARLINK-1088 3.1 18:33:21 10° WNW 18:36:28 67° SSW 18:39:33 10° SE
STARLINK-1115 3.1 18:33:46 10° WNW 18:36:55 67° SSW 18:40:02 10° SE
SL-16 R/B 2.6 18:31:41 10° S 18:36:57 41° ESE 18:42:14 10° NE
STARLINK-1225 3.6 18:33:14 10° SW 18:37:16 66° SE 18:41:19 10° ENE
STARLINK-1076 3.2 18:34:13 10° WNW 18:37:21 66° SW 18:40:29 10° SE
CSL-04 Rocket 4.2 18:32:25 10° S 18:37:41 63° WSW 18:42:57 10° NNW
STARLINK-1092 3.2 18:34:40 10° WNW 18:37:48 66° SW 18:40:55 10° SE
STARLINK-1080 3.2 18:35:09 10° WNW 18:38:15 65° SW 18:41:20 10° SE
STARLINK-1090 3.2 18:35:36 10° WNW 18:38:42 64° SW 18:41:48 10° SE
STARLINK-1072 3.6 18:34:55 10° WNW 18:38:58 84° NNE 18:43:00 10° ESE
STARLINK-1089 3.2 18:36:03 10° WNW 18:39:09 63° SW 18:42:14 10° SE
Cosmos 2333 Rocket 4.2 18:34:16 10° WSW 18:39:19 32° NW 18:44:23 10° NNE
STARLINK-1107 3.2 18:36:31 10° WNW 18:39:37 63° SW 18:42:41 10° SE
Resurs 01 Rocket 3.4 18:39:17 10° E 18:41:50 15° ENE 18:44:23 10° NNE
STARLINK-1230 3.5 18:37:57 10° SW 18:42:00 71° SE 18:46:05 10° ENE
STARLINK-1096 3.5 18:39:16 10° WNW 18:43:20 88° NNE 18:47:19 10° ESE
STARLINK-1233 3.2 18:41:34 10° WSW 18:44:40 66° NNW 18:47:49 10° NE
STARLINK-1212 3.2 18:42:02 10° WSW 18:45:09 66° NNW 18:48:16 10° NE
STARLINK-1105 3.2 18:42:28 10° WSW 18:45:35 65° NNW 18:48:44 10° NE
FREGAT/IRIS 2.9 18:43:14 10° SE 18:45:48 38° ENE 18:48:23 10° N
STARLINK-1206 3.2 18:42:59 10° WSW 18:46:04 65° NNW 18:49:10 10° NE
STARLINK-1247 3.3 18:43:24 10° WSW 18:46:30 64° NNW 18:49:37 10° NE
STARLINK-1243 3.5 18:42:45 10° SW 18:46:50 77° SE 18:50:54 10° ENE
STARLINK-1227 3.3 18:43:50 10° WSW 18:46:57 64° NNW 18:50:04 10° NE
STARLINK-1218 3.3 18:44:19 10° WSW 18:47:25 63° NNW 18:50:31 10° NE
Cosmos 1302 Rocket 4.3 18:42:29 10° NNW 18:47:39 51° ENE 18:52:47 10° SE
Abrixas rocket 3.7 18:45:39 10° S 18:47:41 17° SE 18:49:07 13° ESE
STARLINK-1226 3.3 18:44:45 10° WSW 18:47:51 63° NNW 18:50:58 10° NE
STARLINK-1254 3.3 18:45:12 10° WSW 18:48:18 62° NNW 18:51:26 10° NE
STARLINK-1079 3.6 18:44:19 10° WNW 18:48:22 86° SSW 18:52:11 11° ESE
STARLINK-1215 3.3 18:45:41 10° WSW 18:48:46 62° NNW 18:51:52 10° NE
STARLINK-1103 4.5 18:45:06 10° NW 18:49:03 41° NNE 18:52:45 11° E
STARLINK-1231 3.3 18:46:07 10° WSW 18:49:12 61° NNW 18:52:18 10° NE
STARLINK-1232 3.3 18:47:02 10° WSW 18:50:07 60° NNW 18:53:13 10° NE
Cosmos 1953 3.9 18:47:46 10° SE 18:50:17 16° E 18:52:48 10° NE
Cosmos 304 Rocket 3.9 18:45:34 10° NNW 18:50:22 83° WSW 18:55:09 10° SSE
STARLINK-1217 3.4 18:47:29 10° WSW 18:50:34 60° NNW 18:53:40 10° NE
Cosmos 1709 Rocket 4.0 18:44:46 10° N 18:50:56 59° ENE 18:56:58 10° SSE
STARLINK-1208 3.4 18:47:54 10° WSW 18:51:00 60° NNW 18:54:07 10° NE
SeaSat 1 4.0 18:46:41 10° NNE 18:51:18 40° NW 18:55:53 10° WSW
STARLINK-1229 3.4 18:48:23 10° WSW 18:51:28 59° NNW 18:54:33 10° NE
STARLINK-1236 3.5 18:47:31 10° SW 18:51:36 82° SE 18:55:41 10° ENE
STARLINK-1271 3.4 18:48:50 10° WSW 18:51:55 59° NNW 18:55:01 10° NE
STARLINK-1270 3.4 18:49:18 10° WSW 18:52:23 58° NNW 18:55:28 10° NE
STARLINK-1116 3.6 18:48:45 10° WNW 18:52:48 81° SSW 18:56:26 13° SE
STARLINK-1154 3.4 18:49:45 10° WSW 18:52:50 58° NNW 18:55:55 10° NE
STARLINK-1197 3.4 18:50:39 10° WSW 18:53:44 57° NNW 18:56:49 10° NE
Cosmos 1269 Rocket 4.0 18:48:35 10° S 18:53:49 67° ESE 18:59:06 10° NNE
STARLINK-1101 4.4 18:50:05 10° NW 18:54:03 43° NNE 18:57:32 13° E
STARLINK-1189 3.5 18:51:07 10° WSW 18:54:11 57° NNW 18:57:16 10° NE
MONITOR-E 4.0 18:51:46 10° SSE 18:54:19 46° ENE 18:56:53 10° N
STARLINK-1187 3.7 18:52:00 10° WSW 18:55:03 51° NNW 18:58:08 10° NE
STARLINK-1188 3.5 18:52:01 10° WSW 18:55:05 56° NNW 18:58:11 10° NE
STARLINK-1198 3.5 18:52:01 10° WSW 18:55:05 56° NNW 18:58:11 10° NE
STARLINK-1235 3.8 18:52:44 10° W 18:55:46 46° NNW 18:58:50 10° NE
STARLINK-1199 3.5 18:53:58 10° WSW 18:57:03 54° NNW 19:00:09 10° NE
STARLINK-1191 3.6 18:54:25 10° WSW 18:57:29 54° NNW 19:00:36 10° NE
STARLINK-1210 3.6 18:54:52 10° WSW 18:57:57 54° NNW 19:01:03 10° NE
STARLINK-1221 3.6 18:55:19 10° WSW 18:58:24 53° NNW 19:01:30 10° NE
STARLINK-1219 3.6 18:55:47 10° WSW 18:58:52 53° NNW 19:01:58 10° NE
STARLINK-1102 4.3 18:55:03 10° NW 18:59:03 44° NNE 19:02:19 14° E
STARLINK-1222 3.6 18:56:14 10° WSW 18:59:19 52° NNW 19:02:24 10° NE
STARLINK-1211 3.6 18:56:41 10° WSW 18:59:46 52° NNW 19:02:51 10° NE
ISS -2.7 18:56:57 10° WNW 19:00:06 36° N 19:02:41 14° ENE
STARLINK-1214 3.6 18:57:08 10° WSW 19:00:12 52° NNW 19:03:18 10° NE
STARLINK-1245 3.6 18:57:37 10° WSW 19:00:40 51° NNW 19:03:44 10° NE
STARLINK-1238 3.7 18:58:01 10° WSW 19:01:05 51° NNW 19:04:10 10° NE
STARLINK-1269 3.6 18:57:20 10° WSW 19:01:26 87° NNW 19:05:31 10° ENE
Cosmos 1455 Rocket 3.1 18:57:18 10° S 19:01:38 85° W 19:06:02 10° N
STARLINK-1205 3.7 18:58:56 10° WSW 19:01:59 50° NNW 19:05:03 10° NE
STARLINK-1094 3.7 18:58:01 10° WNW 19:02:03 70° SW 19:05:21 15° SE
Cosmos 2297 3.7 18:56:23 10° NNW 19:02:05 83° ENE 19:07:48 10° SSE
STARLINK-1204 3.7 18:59:26 10° WSW 19:02:28 50° NNW 19:05:32 10° NE
BREEZE-M DEB (TANK) 4.5 18:53:39 10° W 19:02:30 60° N 19:05:20 14° ENE
Cosmos 2084 Rocket 4.4 18:59:53 10° NNW 19:04:00 35° NE 19:06:58 17° E
STARLINK-1111 4.2 19:00:02 10° NW 19:04:03 46° NNE 19:07:06 16° E
S3M 4.5 18:59:14 10° SSW 19:05:35 69° W 19:11:59 10° N
STARLINK-1200 3.6 19:02:09 10° WSW 19:06:14 82° NNW 19:10:20 10° ENE
Cosmos 2237 Rocket 3.3 19:01:01 10° SW 19:06:28 49° WNW 19:11:56 10° NNE
STARLINK-1117 3.8 19:02:52 10° WNW 19:06:54 65° SW 19:10:00 16° SE
STARLINK-1073 4.2 19:05:02 10° NW 19:09:04 48° NNE 19:11:53 18° E
CZ-2C R/B 3.4 19:04:58 10° NE 19:09:21 27° E 19:13:40 10° SSE
Cosmos 1626 Rocket 3.6 19:05:25 10° N 19:09:48 61° ENE 19:14:06 10° SSE
STARLINK-1192 3.7 19:06:55 10° WSW 19:11:00 77° NNW 19:15:06 10° ENE
STARLINK-1078 3.9 19:07:19 10° WNW 19:11:20 61° SW 19:14:17 17° SE
BREEZE-M DEB (TANK) 4.5 19:01:52 10° WNW 19:12:30 39° SW 19:15:44 10° SSE
Cosmos 2278 Rocket 4.3 19:08:07 10° NW 19:12:44 26° WSW 19:17:21 10° SSW
STARLINK-1121 4.1 19:09:59 10° NW 19:14:03 51° NNE 19:16:39 20° E
ARGOS 3.1 19:10:07 10° SSE 19:15:32 88° ENE 19:20:58 10° NNW
Cosmos 292 Rocket 4.4 19:11:25 10° N 19:15:53 37° ENE 19:18:32 21° ESE
STARLINK-1244 3.8 19:11:51 10° WSW 19:15:55 73° NNW 19:20:01 10° ENE
STARLINK-1108 4.0 19:12:12 10° WNW 19:16:11 56° SW 19:18:58 18° SE
Cosmos 1602 Rocket 3.6 19:13:23 10° N 19:17:48 58° ENE 19:21:45 12° SSE
STARLINK-1106 4.0 19:14:57 10° NW 19:19:01 53° NNE 19:21:25 23° E
STARLINK-1138 3.9 19:16:28 10° WSW 19:20:32 69° NNW 19:24:34 10° ENE
STARLINK-1071 4.1 19:16:52 10° WNW 19:20:49 52° SW 19:23:26 20° SSE
STARLINK-1234 4.4 19:18:55 10° W 19:21:38 32° NNW 19:24:04 12° NE
USA 186 2.5 19:19:27 10° S 19:22:51 59° W 19:26:12 10° NNW
MOS 1 Rocket 4.1 19:18:56 10° NNE 19:23:48 38° E 19:28:48 10° SSE
STARLINK-1112 3.9 19:19:58 10° NW 19:24:02 56° NNE 19:26:14 25° E
STARLINK-1110 4.2 19:21:20 10° WNW 19:25:16 48° SW 19:27:43 21° SSE
STARLINK-1143 3.9 19:21:22 10° WSW 19:25:26 65° NNW 19:29:16 11° ENE
MetOp-A 4.2 19:21:25 13° SSE 19:26:14 63° ENE 19:31:32 10° N
STARLINK-1124 4.3 19:22:44 10° WNW 19:26:44 47° SW 19:29:13 21° SSE
CZ-2C R/B 3.3 19:22:57 10° S 19:27:59 68° WSW 19:32:50 10° NNW
IRIDIUM 114 4.4 19:23:18 10° N 19:28:27 56° E 19:32:51 14° SSE
STARLINK-1128 3.9 19:24:56 10° WNW 19:29:02 59° NNE 19:31:01 28° E
Cosmos 1544 Rocket 4.2 19:24:56 10° SSW 19:29:15 59° WNW 19:33:39 10° N
Cosmos 1470 2.7 19:27:22 10° S 19:31:15 85° W 19:35:10 10° N
Cosmos 1437 4.2 19:29:32 10° NNE 19:31:25 21° NE 19:31:25 21° NE
STARLINK-1241 4.1 19:29:47 10° WSW 19:33:47 58° NNW 19:37:12 14° NE
STARLINK-1113 3.8 19:29:54 10° WNW 19:34:01 63° NNE 19:35:47 32° E
STARLINK-1122 4.5 19:30:50 10° WNW 19:34:40 41° SW 19:36:48 22° SSE
SPOT 3 Rocket 3.5 19:29:48 12° SSE 19:34:41 81° ENE 19:39:56 10° NNW
Cosmos 1825 Rocket 4.2 19:32:42 10° N 19:36:49 36° ENE 19:37:53 32° ESE
IRIDIUM 103 4.3 19:32:25 10° N 19:37:39 67° E 19:42:00 15° SSE
STARLINK-1239 4.2 19:34:44 10° WSW 19:38:43 55° NNW 19:41:56 15° NE
STARLINK-1119 3.7 19:34:52 10° WNW 19:39:01 67° NNE 19:40:34 36° E
Cosmos 2369 Rocket 2.4 19:34:51 10° NNW 19:40:29 56° ENE 19:43:14 29° SE
SJ-6B 3.6 19:36:57 10° S 19:40:55 55° W 19:44:59 10° NNW
Cosmos 1726 2.5 19:42:57 41° E 19:43:00 41° E 19:46:33 10° NNE
STARLINK-1240 4.3 19:39:30 10° W 19:43:28 52° NNW 19:46:29 16° NE
Ariane Rocket 4.5 19:39:22 10° SSW 19:44:02 36° W 19:48:44 10° NNW
STARLINK-1114 3.6 19:39:53 10° WNW 19:44:03 71° NNE 19:45:24 40° E
Cosmos 1758 3.7 19:41:11 10° SSW 19:45:14 65° W 19:49:20 10° N
Aureole 2 Rocket 2.5 19:42:10 10° NNW 19:45:36 52° ENE 19:45:56 50° E
Cosmos 1758 Rocket 3.6 19:42:21 10° N 19:46:40 54° ENE 19:47:54 39° SE
NOSS 3-3 (A) 4.1 19:42:41 10° S 19:48:10 45° ESE 19:54:16 10° NE
STARLINK-1216 4.3 19:44:16 10° W 19:48:13 50° NNW 19:51:02 18° NE
NOSS 3-3 (C) 4.1 19:42:48 10° S 19:48:16 44° ESE 19:54:22 10° NE
STARLINK-1130 (DARKSAT) 3.6 19:44:51 10° WNW 19:49:00 75° NNE 19:50:10 46° ESE
CZ-2C R/B 3.8 19:44:44 10° NNE 19:49:32 83° WNW 19:54:13 10° SSW
STARLINK-1237 4.4 19:49:05 10° W 19:53:01 48° NNW 19:55:38 19° NE
Cosmos 1953 Rocket 4.2 19:48:58 10° N 19:53:07 37° ENE 19:53:21 37° E
Terra 3.9 19:53:53 13° NE 19:53:53 13° NE 19:55:58 10° NNE
STARLINK-1084 3.5 19:49:49 10° WNW 19:53:59 80° NNE 19:54:56 52° ESE
Cosmos 2184 Rocket 3.9 19:49:29 10° N 19:55:50 72° E 19:59:37 25° SSE
IRIDIUM 106 4.3 19:50:41 10° N 19:55:56 85° W 20:00:12 16° S
Spot 2 Rocket 4.0 19:55:41 37° E 19:56:51 43° ENE 20:01:40 10° N
STARLINK-1098 3.5 19:54:48 10° WNW 19:58:58 85° NNE 19:59:43 59° ESE
Cosmos 1606 Rocket 3.8 19:59:07 47° E 19:59:12 47° E 20:03:29 10° NNE
SPOT 1/Viking Rocket 4.4 20:00:50 31° ENE 20:01:25 32° ENE 20:06:00 10° N
Cosmos 1943 Rocket 2.1 19:56:21 10° NNW 20:01:55 81° WSW 20:04:34 32° SSE
Meteor 1-21 Rocket 4.3 19:56:45 10° NNW 20:02:20 78° W 20:06:08 21° S
Cosmos 1943 3.4 20:01:03 29° SSE 20:03:26 46° ESE 20:08:50 10° NE
STARLINK-1123 3.5 19:59:47 10° WNW 20:03:56 89° WSW 20:04:30 66° ESE
Meteor 2-10 4.0 20:00:44 12° S 20:05:36 77° E 20:11:09 10° NNE
SL-8 R/B 3.6 20:01:36 10° WNW 20:06:25 80° NNE 20:07:35 51° E
Resurs 1-3 4.0 20:05:32 25° S 20:07:55 59° W 20:12:16 10° NNW
STARLINK-1097 3.4 20:04:45 10° WNW 20:08:54 84° SSW 20:09:16 73° SE
ATLAS 2AS CENTAUR R/B 3.4 20:04:05 10° NW 20:11:30 46° NE 20:14:22 32° E
STARLINK-1099 3.5 20:09:44 10° WNW 20:13:54 78° SSW 20:14:04 76° S
H-2A R/B 4.1 20:10:28 10° SSW 20:14:47 25° W 20:19:04 10° NW
USA 234 3.3 20:09:19 10° NE 20:15:53 82° NW 20:22:26 10° WSW
USA 245 4.1 20:15:17 52° ESE 20:16:02 57° ENE 20:21:44 10° N
Cosmos 2154 Rocket 4.0 20:10:35 10° N 20:16:56 67° ENE 20:18:59 44° SE
Resurs 01 Rocket 1.8 20:16:28 42° SSW 20:17:48 67° WSW 20:22:13 10° NNW
STARLINK-1104 3.6 20:14:44 10° WNW 20:18:50 73° SW 20:18:50 73° SW
DMSP B5D2-2 4.4 20:13:51 10° N 20:19:03 67° WNW 20:24:12 10° SSW
Cosmos 1328 4.0 20:16:55 10° N 20:20:25 62° NNE 20:20:25 62° NNE
SL-16 R/B 3.8 20:15:58 10° WSW 20:21:08 36° NW 20:26:20 10° NNE
Cosmos 2228 2.9 20:22:39 72° NE 20:22:39 72° NE 20:26:39 10° NNE
Cosmos 967 Rocket 4.4 20:16:59 10° SSW 20:23:23 71° ESE 20:29:51 10° NE
STARLINK-1144 3.7 20:19:43 10° WNW 20:23:38 66° WSW 20:23:38 66° WSW
Cosmos 1953 3.5 20:23:07 13° SW 20:26:20 41° WNW 20:30:07 10° N
STARLINK-1103 4.0 20:24:42 10° WNW 20:28:25 59° WSW 20:28:25 59° WSW
Cosmos 1992 Rocket 4.5 20:26:27 10° NNW 20:31:33 55° WSW 20:33:06 40° SSW
Nadezhda 1 Rocket 3.9 20:29:47 31° S 20:33:08 86° E 20:39:34 10° N
STARLINK-1101 4.2 20:29:41 10° WNW 20:33:11 52° WSW 20:33:11 52° WSW
SL-8 Rocket 4.5 20:31:07 10° N 20:37:01 41° ENE 20:37:01 41° ENE
ISS -1.9 20:33:46 10° WNW 20:35:39 31° WNW 20:35:39 31° WNW
STARLINK-1102 4.4 20:34:40 10° WNW 20:37:58 46° WSW 20:37:58 46° WSW
Cosmos 2058 Rocket 4.1 20:42:37 37° NNE 20:42:37 37° NNE 20:45:28 10° NNE
MetOp-B 4.2 20:40:10 56° SSW 20:41:14 73° WSW 20:46:37 10° NNW
Cosmos 1603 3.8 20:37:00 10° SSW 20:42:38 74° WNW 20:48:17 10° NNE
SPOT 5 3.9 20:44:25 32° NNE 20:44:25 32° NNE 20:47:10 10° N
Cosmos 2251 Rocket 4.3 20:38:21 10° SW 20:43:34 52° WNW 20:48:50 10° NNE
Cosmos 1703 4.1 20:40:36 10° NNW 20:43:49 49° NW 20:43:49 49° NW
IGS 5A 4.3 20:49:02 46° N 20:49:02 46° N 20:52:01 10° NNW
ERS-1 Rocket 3.3 20:48:38 55° NE 20:48:38 55° NE 20:52:54 10° N
Landsat 7 3.9 20:49:40 71° NNW 20:49:40 71° NNW 20:53:56 10° NNW
CZ-2C R/B 3.6 20:44:55 10° N 20:49:48 43° WNW 20:54:40 10° SW
Cosmos 1656 Rocket 3.7 20:56:26 10° NNW 21:02:03 74° WSW 21:02:03 74° WSW
Meteor 1-11 4.5 20:58:10 10° NNW 21:03:53 63° W 21:04:29 59° SW
Aureole 1 Rocket 4.2 21:01:51 49° S 21:04:15 82° ESE 21:10:53 10° NNE
COSMOS 2455 3.3 21:09:45 10° NNW 21:15:09 50° NE 21:15:09 50° NE
Cosmos 2341 Rocket 4.1 21:16:13 10° NNW 21:22:33 72° W 21:22:43 71° WSW
Cosmos 2369 Rocket 3.8 21:19:35 10° NW 21:24:07 25° WSW 21:25:03 24° WSW
NOSS 3-4 (A) 3.7 21:23:04 10° NW 21:30:06 85° SW 21:30:09 85° SW
NOSS 3-4 (C) 3.7 21:23:10 10° NW 21:30:11 86° SW 21:30:14 86° SW
Terra 3.2 21:32:46 36° NNW 21:32:46 36° NNW 21:35:35 10° NNW
Cosmos 2218 Rocket 4.4 21:43:28 10° NNW 21:48:36 60° NW 21:48:36 60° NW
USA 234 4.3 21:52:26 10° NE 21:58:28 41° NNW 22:04:30 10° W
ATLAS 2AS CENTAUR R/B 3.3 21:55:22 10° NW 22:01:48 51° W 22:01:48 51° W
Cosmos 1697 Rocket 4.4 22:06:49 10° N 22:10:12 26° NNE 22:10:12 26° NNE
Mayak 1.8 22:15:10 10° N 22:15:32 12° N 22:15:32 12° N
Cosmos 1980 Rocket 4.1 22:32:27 10° N 22:35:28 23° NNE 22:35:28 23° NNE
CZ-4C R/B 4.0 22:31:42 10° NNW 22:37:51 34° NNE 22:38:44 33° NE
SL-16 R/B 4.2 23:52:44 26° NE 23:52:44 26° NE 23:57:23 10° N
